RADUGA 27 [-]

Last updated on July 6, 2021, 3:35 p.m. UTC

1 21132U 91014A   21186.88536782 -.00000371  00000-0  00000-0 0  9991
2 21132  14.9555 351.5158 0005928  69.7712 297.3988  1.00210878111190
UTC
Height (km)
Latitude
Longitude
Inclination
Orbital Period
UTC large
Height (km)
Speed (km/s)
/
Latitude / Longitude
Inclination (degrees)
Orbital Period (minutes)
Azimuth
Elevation
Range (km)
Doppler Factor
iOS Compass Heading
iOS Angle